Data supplied by UK-AIR on 5/6/2020
All Data GMT hour ending 
Status: R =Ratified P=Provisional,P*=As supplied
,,London Teddington Bushy Park,,,,,,,,,,,,,,,,,,,,,,,
Date,time,"Non-volatile PM<sub>2.5</sub> (Hourly measured)",status,unit,"PM<sub>2.5</sub> particulate matter (Hourly measured)",status,unit,"Volatile PM<sub>2.5</sub> (Hourly measured)",status,unit
 
01-01-2019,01:00,23.500,R,ugm-3 (TEOM FDMS),26.300,R,ugm-3 (TEOM FDMS),2.800,R,ugm-3 (TEOM FDMS)
01-01-2019,02:00,10.400,R,ugm-3 (TEOM FDMS),12.300,R,ugm-3 (TEOM FDMS),1.900,R,ugm-3 (TEOM FDMS)
01-01-2019,03:00,4.700,R,ugm-3 (TEOM FDMS),4.400,R,ugm-3 (TEOM FDMS),-0.300,R,ugm-3 (TEOM FDMS)
01-01-2019,04:00,3.800,R,ugm-3 (TEOM FDMS),6.900,R,ugm-3 (TEOM FDMS),3.100,R,ugm-3 (TEOM FDMS)
01-01-2019,05:00,3.300,R,ugm-3 (TEOM FDMS),7.700,R,ugm-3 (TEOM FDMS),4.400,R,ugm-3 (TEOM FDMS)
01-01-2019,06:00,2.200,R,ugm-3 (TEOM FDMS),5.600,R,ugm-3 (TEOM FDMS),3.400,R,ugm-3 (TEOM FDMS)
01-01-2019,07:00,3.300,R,ugm-3 (TEOM FDMS),5.600,R,ugm-3 (TEOM FDMS),2.300,R,ugm-3 (TEOM FDMS)
01-01-2019,08:00,3.200,R,ugm-3 (TEOM FDMS),3.200,R,ugm-3 (TEOM FDMS),0.000,R,ugm-3 (TEOM FDMS)
01-01-2019,09:00,5.000,R,ugm-3 (TEOM FDMS),4.100,R,ugm-3 (TEOM FDMS),-0.900,R,ugm-3 (TEOM FDMS)
01-01-2019,10:00,6.200,R,ugm-3 (TEOM FDMS),7.800,R,ugm-3 (TEOM FDMS),1.600,R,ugm-3 (TEOM FDMS)
01-01-2019,11:00,5.000,R,ugm-3 (TEOM FDMS),5.100,R,ugm-3 (TEOM FDMS),0.100,R,ugm-3 (TEOM FDMS)
01-01-2019,12:00,4.500,R,ugm-3 (TEOM FDMS),6.700,R,ugm-3 (TEOM FDMS),2.200,R,ugm-3 (TEOM FDMS)
01-01-2019,13:00,2.700,R,ugm-3 (TEOM FDMS),4.200,R,ugm-3 (TEOM FDMS),1.500,R,ugm-3 (TEOM FDMS)
01-01-2019,14:00,6.500,R,ugm-3 (TEOM FDMS),8.000,R,ugm-3 (TEOM FDMS),1.500,R,ugm-3 (TEOM FDMS)
01-01-2019,15:00,7.000,R,ugm-3 (TEOM FDMS),8.400,R,ugm-3 (TEOM FDMS),1.400,R,ugm-3 (TEOM FDMS)
01-01-2019,16:00,6.600,R,ugm-3 (TEOM FDMS),10.100,R,ugm-3 (TEOM FDMS),3.500,R,ugm-3 (TEOM FDMS)
01-01-2019,17:00,7.100,R,ugm-3 (TEOM FDMS),8.900,R,ugm-3 (TEOM FDMS),1.800,R,ugm-3 (TEOM FDMS)
01-01-2019,18:00,6.100,R,ugm-3 (TEOM FDMS),8.100,R,ugm-3 (TEOM FDMS),2.000,R,ugm-3 (TEOM FDMS)
01-01-2019,19:00,9.000,R,ugm-3 (TEOM FDMS),9.600,R,ugm-3 (TEOM FDMS),0.600,R,ugm-3 (TEOM FDMS)
01-01-2019,20:00,8.400,R,ugm-3 (TEOM FDMS),9.400,R,ugm-3 (TEOM FDMS),1.000,R,ugm-3 (TEOM FDMS)
01-01-2019,21:00,5.500,R,ugm-3 (TEOM FDMS),6.800,R,ugm-3 (TEOM FDMS),1.300,R,ugm-3 (TEOM FDMS)
01-01-2019,22:00,5.400,R,ugm-3 (TEOM FDMS),6.100,R,ugm-3 (TEOM FDMS),0.700,R,ugm-3 (TEOM FDMS)
01-01-2019,23:00,4.500,R,ugm-3 (TEOM FDMS),5.800,R,ugm-3 (TEOM FDMS),1.300,R,ugm-3 (TEOM FDMS)
01-01-2019,24:00,5.900,R,ugm-3 (TEOM FDMS),6.700,R,ugm-3 (TEOM FDMS),0.800,R,ugm-3 (TEOM FDMS)
02-01-2019,01:00,5.300,R,ugm-3 (TEOM FDMS),5.700,R,ugm-3 (TEOM FDMS),0.400,R,ugm-3 (TEOM FDMS)
02-01-2019,02:00,6.600,R,ugm-3 (TEOM FDMS),7.800,R,ugm-3 (TEOM FDMS),1.200,R,ugm-3 (TEOM FDMS)
02-01-2019,03:00,5.300,R,ugm-3 (TEOM FDMS),6.800,R,ugm-3 (TEOM FDMS),1.500,R,ugm-3 (TEOM FDMS)
02-01-2019,04:00,4.700,R,ugm-3 (TEOM FDMS),6.200,R,ugm-3 (TEOM FDMS),1.500,R,ugm-3 (TEOM FDMS)
02-01-2019,05:00,6.200,R,ugm-3 (TEOM FDMS),7.100,R,ugm-3 (TEOM FDMS),0.900,R,ugm-3 (TEOM FDMS)
02-01-2019,06:00,4.200,R,ugm-3 (TEOM FDMS),6.400,R,ugm-3 (TEOM FDMS),2.200,R,ugm-3 (TEOM FDMS)
02-01-2019,07:00,4.900,R,ugm-3 (TEOM FDMS),7.200,R,ugm-3 (TEOM FDMS),2.300,R,ugm-3 (TEOM FDMS)
02-01-2019,08:00,6.300,R,ugm-3 (TEOM FDMS),6.900,R,ugm-3 (TEOM FDMS),0.600,R,ugm-3 (TEOM FDMS)
02-01-2019,09:00,7.300,R,ugm-3 (TEOM FDMS),8.700,R,ugm-3 (TEOM FDMS),1.400,R,ugm-3 (TEOM FDMS)
02-01-2019,10:00,7.800,R,ugm-3 (TEOM FDMS),8.700,R,ugm-3 (TEOM FDMS),0.900,R,ugm-3 (TEOM FDMS)
02-01-2019,11:00,5.700,R,ugm-3 (TEOM FDMS),7.100,R,ugm-3 (TEOM FDMS),1.400,R,ugm-3 (TEOM FDMS)
02-01-2019,12:00,4.600,R,ugm-3 (TEOM FDMS),7.400,R,ugm-3 (TEOM FDMS),2.800,R,ugm-3 (TEOM FDMS)
02-01-2019,13:00,4.400,R,ugm-3 (TEOM FDMS),5.500,R,ugm-3 (TEOM FDMS),1.100,R,ugm-3 (TEOM FDMS)
02-01-2019,14:00,3.800,R,ugm-3 (TEOM FDMS),5.800,R,ugm-3 (TEOM FDMS),2.000,R,ugm-3 (TEOM FDMS)
02-01-2019,15:00,3.100,R,ugm-3 (TEOM FDMS),4.500,R,ugm-3 (TEOM FDMS),1.400,R,ugm-3 (TEOM FDMS)
02-01-2019,16:00,5.200,R,ugm-3 (TEOM FDMS),6.300,R,ugm-3 (TEOM FDMS),1.100,R,ugm-3 (TEOM FDMS)
02-01-2019,17:00,3.700,R,ugm-3 (TEOM FDMS),5.700,R,ugm-3 (TEOM FDMS),2.000,R,ugm-3 (TEOM FDMS)
02-01-2019,18:00,6.800,R,ugm-3 (TEOM FDMS),8.600,R,ugm-3 (TEOM FDMS),1.800,R,ugm-3 (TEOM FDMS)
02-01-2019,19:00,8.400,R,ugm-3 (TEOM FDMS),10.100,R,ugm-3 (TEOM FDMS),1.700,R,ugm-3 (TEOM FDMS)
02-01-2019,20:00,8.800,R,ugm-3 (TEOM FDMS),10.900,R,ugm-3 (TEOM FDMS),2.100,R,ugm-3 (TEOM FDMS)
02-01-2019,21:00,7.500,R,ugm-3 (TEOM FDMS),9.300,R,ugm-3 (TEOM FDMS),1.800,R,ugm-3 (TEOM FDMS)
02-01-2019,22:00,8.700,R,ugm-3 (TEOM FDMS),11.400,R,ugm-3 (TEOM FDMS),2.700,R,ugm-3 (TEOM FDMS)
02-01-2019,23:00,7.400,R,ugm-3 (TEOM FDMS),10.900,R,ugm-3 (TEOM FDMS),3.500,R,ugm-3 (TEOM FDMS)
02-01-2019,24:00,8.800,R,ugm-3 (TEOM FDMS),9.800,R,ugm-3 (TEOM FDMS),1.000,R,ugm-3 (TEOM FDMS)
03-01-2019,01:00,6.700,R,ugm-3 (TEOM FDMS),8.800,R,ugm-3 (TEOM FDMS),2.100,R,ugm-3 (TEOM FDMS)
03-01-2019,02:00,6.200,R,ugm-3 (TEOM FDMS),8.100,R,ugm-3 (TEOM FDMS),1.900,R,ugm-3 (TEOM FDMS)
03-01-2019,03:00,5.600,R,ugm-3 (TEOM FDMS),6.700,R,ugm-3 (TEOM FDMS),1.100,R,ugm-3 (TEOM FDMS)
03-01-2019,04:00,3.500,R,ugm-3 (TEOM FDMS),7.300,R,ugm-3 (TEOM FDMS),3.800,R,ugm-3 (TEOM FDMS)
03-01-2019,05:00,4.300,R,ugm-3 (TEOM FDMS),7.400,R,ugm-3 (TEOM FDMS),3.100,R,ugm-3 (TEOM FDMS)
03-01-2019,06:00,3.000,R,ugm-3 (TEOM FDMS),6.200,R,ugm-3 (TEOM FDMS),3.200,R,ugm-3 (TEOM FDMS)
03-01-2019,07:00,4.300,R,ugm-3 (TEOM FDMS),6.500,R,ugm-3 (TEOM FDMS),2.200,R,ugm-3 (TEOM FDMS)
03-01-2019,08:00,3.300,R,ugm-3 (TEOM FDMS),4.200,R,ugm-3 (TEOM FDMS),0.900,R,ugm-3 (TEOM FDMS)
03-01-2019,09:00,6.000,R,ugm-3 (TEOM FDMS),6.700,R,ugm-3 (TEOM FDMS),0.700,R,ugm-3 (TEOM FDMS)
03-01-2019,10:00,3.900,R,ugm-3 (TEOM FDMS),7.300,R,ugm-3 (TEOM FDMS),3.400,R,ugm-3 (TEOM FDMS)
03-01-2019,11:00,4.800,R,ugm-3 (TEOM FDMS),7.300,R,ugm-3 (TEOM FDMS),2.500,R,ugm-3 (TEOM FDMS)
03-01-2019,12:00,6.000,R,ugm-3 (TEOM FDMS),8.200,R,ugm-3 (TEOM FDMS),2.200,R,ugm-3 (TEOM FDMS)
03-01-2019,13:00,3.500,R,ugm-3 (TEOM FDMS),6.000,R,ugm-3 (TEOM FDMS),2.500,R,ugm-3 (TEOM FDMS)
03-01-2019,14:00,4.100,R,ugm-3 (TEOM FDMS),6.500,R,ugm-3 (TEOM FDMS),2.400,R,ugm-3 (TEOM FDMS)
03-01-2019,15:00,5.000,R,ugm-3 (TEOM FDMS),7.000,R,ugm-3 (TEOM FDMS),2.000,R,ugm-3 (TEOM FDMS)
03-01-2019,16:00,5.900,R,ugm-3 (TEOM FDMS),7.900,R,ugm-3 (TEOM FDMS),2.000,R,ugm-3 (TEOM FDMS)
03-01-2019,17:00,6.200,R,ugm-3 (TEOM FDMS),8.300,R,ugm-3 (TEOM FDMS),2.100,R,ugm-3 (TEOM FDMS)
03-01-2019,18:00,11.300,R,ugm-3 (TEOM FDMS),13.300,R,ugm-3 (TEOM FDMS),2.000,R,ugm-3 (TEOM FDMS)
03-01-2019,19:00,11.800,R,ugm-3 (TEOM FDMS),14.600,R,ugm-3 (TEOM FDMS),2.800,R,ugm-3 (TEOM FDMS)
03-01-2019,20:00,12.200,R,ugm-3 (TEOM FDMS),15.000,R,ugm-3 (TEOM FDMS),2.800,R,ugm-3 (TEOM FDMS)
03-01-2019,21:00,14.400,R,ugm-3 (TEOM FDMS),16.800,R,ugm-3 (TEOM FDMS),2.400,R,ugm-3 (TEOM FDMS)
03-01-2019,22:00,14.900,R,ugm-3 (TEOM FDMS),18.800,R,ugm-3 (TEOM FDMS),3.900,R,ugm-3 (TEOM FDMS)
03-01-2019,23:00,23.500,R,ugm-3 (TEOM FDMS),24.900,R,ugm-3 (TEOM FDMS),1.400,R,ugm-3 (TEOM FDMS)
03-01-2019,24:00,19.700,R,ugm-3 (TEOM FDMS),24.300,R,ugm-3 (TEOM FDMS),4.600,R,ugm-3 (TEOM FDMS)
04-01-2019,01:00,20.400,R,ugm-3 (TEOM FDMS),24.000,R,ugm-3 (TEOM FDMS),3.600,R,ugm-3 (TEOM FDMS)
04-01-2019,02:00,18.600,R,ugm-3 (TEOM FDMS),22.800,R,ugm-3 (TEOM FDMS),4.200,R,ugm-3 (TEOM FDMS)
04-01-2019,03:00,18.000,R,ugm-3 (TEOM FDMS),20.900,R,ugm-3 (TEOM FDMS),2.900,R,ugm-3 (TEOM FDMS)
04-01-2019,04:00,15.000,R,ugm-3 (TEOM FDMS),21.000,R,ugm-3 (TEOM FDMS),6.000,R,ugm-3 (TEOM FDMS)
04-01-2019,05:00,13.800,R,ugm-3 (TEOM FDMS),18.000,R,ugm-3 (TEOM FDMS),4.200,R,ugm-3 (TEOM FDMS)
04-01-2019,06:00,15.000,R,ugm-3 (TEOM FDMS),19.700,R,ugm-3 (TEOM FDMS),4.700,R,ugm-3 (TEOM FDMS)
04-01-2019,07:00,16.300,R,ugm-3 (TEOM FDMS),21.200,R,ugm-3 (TEOM FDMS),4.900,R,ugm-3 (TEOM FDMS)
04-01-2019,08:00,16.000,R,ugm-3 (TEOM FDMS),20.700,R,ugm-3 (TEOM FDMS),4.700,R,ugm-3 (TEOM FDMS)
04-01-2019,09:00,18.800,R,ugm-3 (TEOM FDMS),24.500,R,ugm-3 (TEOM FDMS),5.700,R,ugm-3 (TEOM FDMS)
04-01-2019,10:00,20.400,R,ugm-3 (TEOM FDMS),29.100,R,ugm-3 (TEOM FDMS),8.700,R,ugm-3 (TEOM FDMS)
04-01-2019,11:00,19.400,R,ugm-3 (TEOM FDMS),28.600,R,ugm-3 (TEOM FDMS),9.200,R,ugm-3 (TEOM FDMS)
04-01-2019,12:00,18.500,R,ugm-3 (TEOM FDMS),26.300,R,ugm-3 (TEOM FDMS),7.800,R,ugm-3 (TEOM FDMS)
04-01-2019,13:00,19.000,R,ugm-3 (TEOM FDMS),26.500,R,ugm-3 (TEOM FDMS),7.500,R,ugm-3 (TEOM FDMS)
04-01-2019,14:00,16.800,R,ugm-3 (TEOM FDMS),25.300,R,ugm-3 (TEOM FDMS),8.500,R,ugm-3 (TEOM FDMS)
04-01-2019,15:00,13.600,R,ugm-3 (TEOM FDMS),21.400,R,ugm-3 (TEOM FDMS),7.800,R,ugm-3 (TEOM FDMS)
04-01-2019,16:00,12.800,R,ugm-3 (TEOM FDMS),18.800,R,ugm-3 (TEOM FDMS),6.000,R,ugm-3 (TEOM FDMS)
04-01-2019,17:00,14.100,R,ugm-3 (TEOM FDMS),18.900,R,ugm-3 (TEOM FDMS),4.800,R,ugm-3 (TEOM FDMS)
04-01-2019,18:00,19.500,R,ugm-3 (TEOM FDMS),24.100,R,ugm-3 (TEOM FDMS),4.600,R,ugm-3 (TEOM FDMS)
04-01-2019,19:00,23.700,R,ugm-3 (TEOM FDMS),29.300,R,ugm-3 (TEOM FDMS),5.600,R,ugm-3 (TEOM FDMS)
04-01-2019,20:00,30.200,R,ugm-3 (TEOM FDMS),35.300,R,ugm-3 (TEOM FDMS),5.100,R,ugm-3 (TEOM FDMS)
04-01-2019,21:00,30.900,R,ugm-3 (TEOM FDMS),37.800,R,ugm-3 (TEOM FDMS),6.900,R,ugm-3 (TEOM FDMS)
04-01-2019,22:00,26.900,R,ugm-3 (TEOM FDMS),33.900,R,ugm-3 (TEOM FDMS),7.000,R,ugm-3 (TEOM FDMS)
04-01-2019,23:00,27.900,R,ugm-3 (TEOM FDMS),34.100,R,ugm-3 (TEOM FDMS),6.200,R,ugm-3 (TEOM FDMS)
04-01-2019,24:00,24.800,R,ugm-3 (TEOM FDMS),32.400,R,ugm-3 (TEOM FDMS),7.600,R,ugm-3 (TEOM FDMS)
05-01-2019,01:00,23.200,R,ugm-3 (TEOM FDMS),30.200,R,ugm-3 (TEOM FDMS),7.000,R,ugm-3 (TEOM FDMS)
05-01-2019,02:00,24.700,R,ugm-3 (TEOM FDMS),32.200,R,ugm-3 (TEOM FDMS),7.500,R,ugm-3 (TEOM FDMS)
05-01-2019,03:00,22.700,R,ugm-3 (TEOM FDMS),28.300,R,ugm-3 (TEOM FDMS),5.600,R,ugm-3 (TEOM FDMS)
05-01-2019,04:00,22.500,R,ugm-3 (TEOM FDMS),27.100,R,ugm-3 (TEOM FDMS),4.600,R,ugm-3 (TEOM FDMS)
05-01-2019,05:00,18.900,R,ugm-3 (TEOM FDMS),25.800,R,ugm-3 (TEOM FDMS),6.900,R,ugm-3 (TEOM FDMS)
05-01-2019,06:00,17.800,R,ugm-3 (TEOM FDMS),23.400,R,ugm-3 (TEOM FDMS),5.600,R,ugm-3 (TEOM FDMS)
05-01-2019,07:00,13.800,R,ugm-3 (TEOM FDMS),20.800,R,ugm-3 (TEOM FDMS),7.000,R,ugm-3 (TEOM FDMS)
05-01-2019,08:00,14.600,R,ugm-3 (TEOM FDMS),20.400,R,ugm-3 (TEOM FDMS),5.800,R,ugm-3 (TEOM FDMS)
05-01-2019,09:00,13.500,R,ugm-3 (TEOM FDMS),20.500,R,ugm-3 (TEOM FDMS),7.000,R,ugm-3 (TEOM FDMS)
05-01-2019,10:00,13.600,R,ugm-3 (TEOM FDMS),19.600,R,ugm-3 (TEOM FDMS),6.000,R,ugm-3 (TEOM FDMS)
05-01-2019,11:00,10.200,R,ugm-3 (TEOM FDMS),17.100,R,ugm-3 (TEOM FDMS),6.900,R,ugm-3 (TEOM FDMS)
05-01-2019,12:00,8.100,R,ugm-3 (TEOM FDMS),14.000,R,ugm-3 (TEOM FDMS),5.900,R,ugm-3 (TEOM FDMS)
05-01-2019,13:00,5.800,R,ugm-3 (TEOM FDMS),11.800,R,ugm-3 (TEOM FDMS),6.000,R,ugm-3 (TEOM FDMS)
05-01-2019,14:00,7.300,R,ugm-3 (TEOM FDMS),12.300,R,ugm-3 (TEOM FDMS),5.000,R,ugm-3 (TEOM FDMS)
05-01-2019,15:00,7.500,R,ugm-3 (TEOM FDMS),13.100,R,ugm-3 (TEOM FDMS),5.600,R,ugm-3 (TEOM FDMS)
05-01-2019,16:00,8.200,R,ugm-3 (TEOM FDMS),13.700,R,ugm-3 (TEOM FDMS),5.500,R,ugm-3 (TEOM FDMS)
05-01-2019,17:00,11.600,R,ugm-3 (TEOM FDMS),15.200,R,ugm-3 (TEOM FDMS),3.600,R,ugm-3 (TEOM FDMS)
05-01-2019,18:00,16.500,R,ugm-3 (TEOM FDMS),22.000,R,ugm-3 (TEOM FDMS),5.500,R,ugm-3 (TEOM FDMS)
05-01-2019,19:00,15.100,R,ugm-3 (TEOM FDMS),20.900,R,ugm-3 (TEOM FDMS),5.800,R,ugm-3 (TEOM FDMS)
05-01-2019,20:00,16.000,R,ugm-3 (TEOM FDMS),20.600,R,ugm-3 (TEOM FDMS),4.600,R,ugm-3 (TEOM FDMS)
05-01-2019,21:00,15.800,R,ugm-3 (TEOM FDMS),20.600,R,ugm-3 (TEOM FDMS),4.800,R,ugm-3 (TEOM FDMS)
05-01-2019,22:00,19.500,R,ugm-3 (TEOM FDMS),25.200,R,ugm-3 (TEOM FDMS),5.700,R,ugm-3 (TEOM FDMS)
05-01-2019,23:00,26.000,R,ugm-3 (TEOM FDMS),31.600,R,ugm-3 (TEOM FDMS),5.600,R,ugm-3 (TEOM FDMS)
05-01-2019,24:00,21.500,R,ugm-3 (TEOM FDMS),26.700,R,ugm-3 (TEOM FDMS),5.200,R,ugm-3 (TEOM FDMS)
06-01-2019,01:00,17.800,R,ugm-3 (TEOM FDMS),23.500,R,ugm-3 (TEOM FDMS),5.700,R,ugm-3 (TEOM FDMS)
06-01-2019,02:00,15.500,R,ugm-3 (TEOM FDMS),20.200,R,ugm-3 (TEOM FDMS),4.700,R,ugm-3 (TEOM FDMS)
06-01-2019,03:00,11.300,R,ugm-3 (TEOM FDMS),16.800,R,ugm-3 (TEOM FDMS),5.500,R,ugm-3 (TEOM FDMS)
06-01-2019,04:00,10.500,R,ugm-3 (TEOM FDMS),16.200,R,ugm-3 (TEOM FDMS),5.700,R,ugm-3 (TEOM FDMS)
06-01-2019,05:00,10.000,R,ugm-3 (TEOM FDMS),14.400,R,ugm-3 (TEOM FDMS),4.400,R,ugm-3 (TEOM FDMS)
06-01-2019,06:00,9.900,R,ugm-3 (TEOM FDMS),14.400,R,ugm-3 (TEOM FDMS),4.500,R,ugm-3 (TEOM FDMS)
06-01-2019,07:00,11.600,R,ugm-3 (TEOM FDMS),16.600,R,ugm-3 (TEOM FDMS),5.000,R,ugm-3 (TEOM FDMS)
06-01-2019,08:00,17.700,R,ugm-3 (TEOM FDMS),22.700,R,ugm-3 (TEOM FDMS),5.000,R,ugm-3 (TEOM FDMS)
06-01-2019,09:00,17.500,R,ugm-3 (TEOM FDMS),22.400,R,ugm-3 (TEOM FDMS),4.900,R,ugm-3 (TEOM FDMS)
06-01-2019,10:00,10.800,R,ugm-3 (TEOM FDMS),14.500,R,ugm-3 (TEOM FDMS),3.700,R,ugm-3 (TEOM FDMS)
06-01-2019,11:00,12.600,R,ugm-3 (TEOM FDMS),16.100,R,ugm-3 (TEOM FDMS),3.500,R,ugm-3 (TEOM FDMS)
06-01-2019,12:00,12.000,R,ugm-3 (TEOM FDMS),17.000,R,ugm-3 (TEOM FDMS),5.000,R,ugm-3 (TEOM FDMS)
06-01-2019,13:00,8.800,R,ugm-3 (TEOM FDMS),15.500,R,ugm-3 (TEOM FDMS),6.700,R,ugm-3 (TEOM FDMS)
06-01-2019,14:00,8.400,R,ugm-3 (TEOM FDMS),13.000,R,ugm-3 (TEOM FDMS),4.600,R,ugm-3 (TEOM FDMS)
06-01-2019,15:00,8.100,R,ugm-3 (TEOM FDMS),10.500,R,ugm-3 (TEOM FDMS),2.400,R,ugm-3 (TEOM FDMS)
06-01-2019,16:00,8.300,R,ugm-3 (TEOM FDMS),11.900,R,ugm-3 (TEOM FDMS),3.600,R,ugm-3 (TEOM FDMS)
06-01-2019,17:00,9.900,R,ugm-3 (TEOM FDMS),12.300,R,ugm-3 (TEOM FDMS),2.400,R,ugm-3 (TEOM FDMS)
06-01-2019,18:00,13.100,R,ugm-3 (TEOM FDMS),17.400,R,ugm-3 (TEOM FDMS),4.300,R,ugm-3 (TEOM FDMS)
06-01-2019,19:00,15.000,R,ugm-3 (TEOM FDMS),17.800,R,ugm-3 (TEOM FDMS),2.800,R,ugm-3 (TEOM FDMS)
06-01-2019,20:00,15.000,R,ugm-3 (TEOM FDMS),17.200,R,ugm-3 (TEOM FDMS),2.200,R,ugm-3 (TEOM FDMS)
06-01-2019,21:00,13.500,R,ugm-3 (TEOM FDMS),16.600,R,ugm-3 (TEOM FDMS),3.100,R,ugm-3 (TEOM FDMS)
06-01-2019,22:00,14.200,R,ugm-3 (TEOM FDMS),16.900,R,ugm-3 (TEOM FDMS),2.700,R,ugm-3 (TEOM FDMS)
06-01-2019,23:00,11.000,R,ugm-3 (TEOM FDMS),15.800,R,ugm-3 (TEOM FDMS),4.800,R,ugm-3 (TEOM FDMS)
06-01-2019,24:00,11.800,R,ugm-3 (TEOM FDMS),15.800,R,ugm-3 (TEOM FDMS),4.000,R,ugm-3 (TEOM FDMS)
07-01-2019,01:00,14.600,R,ugm-3 (TEOM FDMS),16.900,R,ugm-3 (TEOM FDMS),2.300,R,ugm-3 (TEOM FDMS)
07-01-2019,02:00,14.700,R,ugm-3 (TEOM FDMS),17.700,R,ugm-3 (TEOM FDMS),3.000,R,ugm-3 (TEOM FDMS)
07-01-2019,03:00,13.500,R,ugm-3 (TEOM FDMS),15.300,R,ugm-3 (TEOM FDMS),1.800,R,ugm-3 (TEOM FDMS)
07-01-2019,04:00,11.600,R,ugm-3 (TEOM FDMS),13.900,R,ugm-3 (TEOM FDMS),2.300,R,ugm-3 (TEOM FDMS)
07-01-2019,05:00,10.400,R,ugm-3 (TEOM FDMS),13.900,R,ugm-3 (TEOM FDMS),3.500,R,ugm-3 (TEOM FDMS)
07-01-2019,06:00,7.400,R,ugm-3 (TEOM FDMS),12.200,R,ugm-3 (TEOM FDMS),4.800,R,ugm-3 (TEOM FDMS)
07-01-2019,07:00,7.100,R,ugm-3 (TEOM FDMS),11.700,R,ugm-3 (TEOM FDMS),4.600,R,ugm-3 (TEOM FDMS)
07-01-2019,08:00,7.400,R,ugm-3 (TEOM FDMS),12.000,R,ugm-3 (TEOM FDMS),4.600,R,ugm-3 (TEOM FDMS)
07-01-2019,09:00,8.000,R,ugm-3 (TEOM FDMS),11.800,R,ugm-3 (TEOM FDMS),3.800,R,ugm-3 (TEOM FDMS)
07-01-2019,10:00,8.300,R,ugm-3 (TEOM FDMS),12.700,R,ugm-3 (TEOM FDMS),4.400,R,ugm-3 (TEOM FDMS)
07-01-2019,11:00,7.600,R,ugm-3 (TEOM FDMS),11.300,R,ugm-3 (TEOM FDMS),3.700,R,ugm-3 (TEOM FDMS)
07-01-2019,12:00,7.900,R,ugm-3 (TEOM FDMS),11.700,R,ugm-3 (TEOM FDMS),3.800,R,ugm-3 (TEOM FDMS)
07-01-2019,13:00,4.800,R,ugm-3 (TEOM FDMS),9.900,R,ugm-3 (TEOM FDMS),5.100,R,ugm-3 (TEOM FDMS)
07-01-2019,14:00,4.500,R,ugm-3 (TEOM FDMS),9.600,R,ugm-3 (TEOM FDMS),5.100,R,ugm-3 (TEOM FDMS)
07-01-2019,15:00,,,,,,,,,
07-01-2019,16:00,,,,,,,,,
07-01-2019,17:00,1.900,R,ugm-3 (TEOM FDMS),7.400,R,ugm-3 (TEOM FDMS),5.500,R,ugm-3 (TEOM FDMS)
07-01-2019,18:00,4.900,R,ugm-3 (TEOM FDMS),9.700,R,ugm-3 (TEOM FDMS),4.800,R,ugm-3 (TEOM FDMS)
07-01-2019,19:00,4.400,R,ugm-3 (TEOM FDMS),7.400,R,ugm-3 (TEOM FDMS),3.000,R,ugm-3 (TEOM FDMS)
07-01-2019,20:00,5.100,R,ugm-3 (TEOM FDMS),8.700,R,ugm-3 (TEOM FDMS),3.600,R,ugm-3 (TEOM FDMS)
07-01-2019,21:00,5.800,R,ugm-3 (TEOM FDMS),10.600,R,ugm-3 (TEOM FDMS),4.800,R,ugm-3 (TEOM FDMS)
07-01-2019,22:00,3.500,R,ugm-3 (TEOM FDMS),9.200,R,ugm-3 (TEOM FDMS),5.700,R,ugm-3 (TEOM FDMS)
07-01-2019,23:00,3.400,R,ugm-3 (TEOM FDMS),5.900,R,ugm-3 (TEOM FDMS),2.500,R,ugm-3 (TEOM FDMS)
07-01-2019,24:00,4.400,R,ugm-3 (TEOM FDMS),7.100,R,ugm-3 (TEOM FDMS),2.700,R,ugm-3 (TEOM FDMS)
08-01-2019,01:00,3.000,R,ugm-3 (TEOM FDMS),7.700,R,ugm-3 (TEOM FDMS),4.700,R,ugm-3 (TEOM FDMS)
08-01-2019,02:00,2.200,R,ugm-3 (TEOM FDMS),4.200,R,ugm-3 (TEOM FDMS),2.000,R,ugm-3 (TEOM FDMS)
08-01-2019,03:00,0.800,R,ugm-3 (TEOM FDMS),3.700,R,ugm-3 (TEOM FDMS),2.900,R,ugm-3 (TEOM FDMS)
08-01-2019,04:00,0.100,R,ugm-3 (TEOM FDMS),0.200,R,ugm-3 (TEOM FDMS),0.100,R,ugm-3 (TEOM FDMS)
08-01-2019,05:00,1.800,R,ugm-3 (TEOM FDMS),3.300,R,ugm-3 (TEOM FDMS),1.500,R,ugm-3 (TEOM FDMS)
08-01-2019,06:00,1.600,R,ugm-3 (TEOM FDMS),3.900,R,ugm-3 (TEOM FDMS),2.300,R,ugm-3 (TEOM FDMS)
08-01-2019,07:00,3.500,R,ugm-3 (TEOM FDMS),7.000,R,ugm-3 (TEOM FDMS),3.500,R,ugm-3 (TEOM FDMS)
08-01-2019,08:00,5.500,R,ugm-3 (TEOM FDMS),8.100,R,ugm-3 (TEOM FDMS),2.600,R,ugm-3 (TEOM FDMS)
08-01-2019,09:00,4.800,R,ugm-3 (TEOM FDMS),5.200,R,ugm-3 (TEOM FDMS),0.400,R,ugm-3 (TEOM FDMS)
08-01-2019,10:00,8.600,R,ugm-3 (TEOM FDMS),8.200,R,ugm-3 (TEOM FDMS),-0.400,R,ugm-3 (TEOM FDMS)
08-01-2019,11:00,10.100,R,ugm-3 (TEOM FDMS),11.200,R,ugm-3 (TEOM FDMS),1.100,R,ugm-3 (TEOM FDMS)
08-01-2019,12:00,9.900,R,ugm-3 (TEOM FDMS),13.300,R,ugm-3 (TEOM FDMS),3.400,R,ugm-3 (TEOM FDMS)
08-01-2019,13:00,8.700,R,ugm-3 (TEOM FDMS),10.700,R,ugm-3 (TEOM FDMS),2.000,R,ugm-3 (TEOM FDMS)
08-01-2019,14:00,11.000,R,ugm-3 (TEOM FDMS),13.700,R,ugm-3 (TEOM FDMS),2.700,R,ugm-3 (TEOM FDMS)
08-01-2019,15:00,7.700,R,ugm-3 (TEOM FDMS),9.900,R,ugm-3 (TEOM FDMS),2.200,R,ugm-3 (TEOM FDMS)
08-01-2019,16:00,6.200,R,ugm-3 (TEOM FDMS),8.200,R,ugm-3 (TEOM FDMS),2.000,R,ugm-3 (TEOM FDMS)
08-01-2019,17:00,10.700,R,ugm-3 (TEOM FDMS),13.000,R,ugm-3 (TEOM FDMS),2.300,R,ugm-3 (TEOM FDMS)
08-01-2019,18:00,14.400,R,ugm-3 (TEOM FDMS),15.700,R,ugm-3 (TEOM FDMS),1.300,R,ugm-3 (TEOM FDMS)
08-01-2019,19:00,14.800,R,ugm-3 (TEOM FDMS),19.100,R,ugm-3 (TEOM FDMS),4.300,R,ugm-3 (TEOM FDMS)
08-01-2019,20:00,14.100,R,ugm-3 (TEOM FDMS),16.600,R,ugm-3 (TEOM FDMS),2.500,R,ugm-3 (TEOM FDMS)
08-01-2019,21:00,14.600,R,ugm-3 (TEOM FDMS),17.200,R,ugm-3 (TEOM FDMS),2.600,R,ugm-3 (TEOM FDMS)
08-01-2019,22:00,10.100,R,ugm-3 (TEOM FDMS),12.000,R,ugm-3 (TEOM FDMS),1.900,R,ugm-3 (TEOM FDMS)
08-01-2019,23:00,9.000,R,ugm-3 (TEOM FDMS),12.000,R,ugm-3 (TEOM FDMS),3.000,R,ugm-3 (TEOM FDMS)
08-01-2019,24:00,9.300,R,ugm-3 (TEOM FDMS),11.100,R,ugm-3 (TEOM FDMS),1.800,R,ugm-3 (TEOM FDMS)
09-01-2019,01:00,7.400,R,ugm-3 (TEOM FDMS),10.400,R,ugm-3 (TEOM FDMS),3.000,R,ugm-3 (TEOM FDMS)
09-01-2019,02:00,5.500,R,ugm-3 (TEOM FDMS),9.300,R,ugm-3 (TEOM FDMS),3.800,R,ugm-3 (TEOM FDMS)
09-01-2019,03:00,8.200,R,ugm-3 (TEOM FDMS),9.900,R,ugm-3 (TEOM FDMS),1.700,R,ugm-3 (TEOM FDMS)
09-01-2019,04:00,4.500,R,ugm-3 (TEOM FDMS),6.400,R,ugm-3 (TEOM FDMS),1.900,R,ugm-3 (TEOM FDMS)
09-01-2019,05:00,4.100,R,ugm-3 (TEOM FDMS),7.600,R,ugm-3 (TEOM FDMS),3.500,R,ugm-3 (TEOM FDMS)
09-01-2019,06:00,4.300,R,ugm-3 (TEOM FDMS),6.600,R,ugm-3 (TEOM FDMS),2.300,R,ugm-3 (TEOM FDMS)
09-01-2019,07:00,4.600,R,ugm-3 (TEOM FDMS),7.500,R,ugm-3 (TEOM FDMS),2.900,R,ugm-3 (TEOM FDMS)
09-01-2019,08:00,6.000,R,ugm-3 (TEOM FDMS),8.400,R,ugm-3 (TEOM FDMS),2.400,R,ugm-3 (TEOM FDMS)
09-01-2019,09:00,5.300,R,ugm-3 (TEOM FDMS),6.000,R,ugm-3 (TEOM FDMS),0.700,R,ugm-3 (TEOM FDMS)
09-01-2019,10:00,5.900,R,ugm-3 (TEOM FDMS),5.300,R,ugm-3 (TEOM FDMS),-0.600,R,ugm-3 (TEOM FDMS)
09-01-2019,11:00,5.800,R,ugm-3 (TEOM FDMS),8.400,R,ugm-3 (TEOM FDMS),2.600,R,ugm-3 (TEOM FDMS)
09-01-2019,12:00,5.500,R,ugm-3 (TEOM FDMS),9.000,R,ugm-3 (TEOM FDMS),3.500,R,ugm-3 (TEOM FDMS)
09-01-2019,13:00,2.200,R,ugm-3 (TEOM FDMS),4.300,R,ugm-3 (TEOM FDMS),2.100,R,ugm-3 (TEOM FDMS)
09-01-2019,14:00,5.100,R,ugm-3 (TEOM FDMS),7.100,R,ugm-3 (TEOM FDMS),2.000,R,ugm-3 (TEOM FDMS)
09-01-2019,15:00,4.300,R,ugm-3 (TEOM FDMS),6.200,R,ugm-3 (TEOM FDMS),1.900,R,ugm-3 (TEOM FDMS)
09-01-2019,16:00,5.200,R,ugm-3 (TEOM FDMS),6.600,R,ugm-3 (TEOM FDMS),1.400,R,ugm-3 (TEOM FDMS)
09-01-2019,17:00,7.300,R,ugm-3 (TEOM FDMS),9.500,R,ugm-3 (TEOM FDMS),2.200,R,ugm-3 (TEOM FDMS)
09-01-2019,18:00,10.400,R,ugm-3 (TEOM FDMS),13.500,R,ugm-3 (TEOM FDMS),3.100,R,ugm-3 (TEOM FDMS)
09-01-2019,19:00,10.100,R,ugm-3 (TEOM FDMS),11.500,R,ugm-3 (TEOM FDMS),1.400,R,ugm-3 (TEOM FDMS)
09-01-2019,20:00,9.000,R,ugm-3 (TEOM FDMS),11.700,R,ugm-3 (TEOM FDMS),2.700,R,ugm-3 (TEOM FDMS)
09-01-2019,21:00,9.800,R,ugm-3 (TEOM FDMS),12.100,R,ugm-3 (TEOM FDMS),2.300,R,ugm-3 (TEOM FDMS)
09-01-2019,22:00,9.100,R,ugm-3 (TEOM FDMS),11.500,R,ugm-3 (TEOM FDMS),2.400,R,ugm-3 (TEOM FDMS)
09-01-2019,23:00,10.500,R,ugm-3 (TEOM FDMS),14.800,R,ugm-3 (TEOM FDMS),4.300,R,ugm-3 (TEOM FDMS)
09-01-2019,24:00,7.600,R,ugm-3 (TEOM FDMS),11.200,R,ugm-3 (TEOM FDMS),3.600,R,ugm-3 (TEOM FDMS)
10-01-2019,01:00,7.100,R,ugm-3 (TEOM FDMS),12.200,R,ugm-3 (TEOM FDMS),5.100,R,ugm-3 (TEOM FDMS)
10-01-2019,02:00,11.300,R,ugm-3 (TEOM FDMS),14.400,R,ugm-3 (TEOM FDMS),3.100,R,ugm-3 (TEOM FDMS)
10-01-2019,03:00,11.600,R,ugm-3 (TEOM FDMS),15.500,R,ugm-3 (TEOM FDMS),3.900,R,ugm-3 (TEOM FDMS)
10-01-2019,04:00,11.500,R,ugm-3 (TEOM FDMS),17.200,R,ugm-3 (TEOM FDMS),5.700,R,ugm-3 (TEOM FDMS)
10-01-2019,05:00,11.800,R,ugm-3 (TEOM FDMS),17.800,R,ugm-3 (TEOM FDMS),6.000,R,ugm-3 (TEOM FDMS)
10-01-2019,06:00,12.800,R,ugm-3 (TEOM FDMS),18.600,R,ugm-3 (TEOM FDMS),5.800,R,ugm-3 (TEOM FDMS)
10-01-2019,07:00,17.400,R,ugm-3 (TEOM FDMS),22.000,R,ugm-3 (TEOM FDMS),4.600,R,ugm-3 (TEOM FDMS)
10-01-2019,08:00,20.600,R,ugm-3 (TEOM FDMS),25.000,R,ugm-3 (TEOM FDMS),4.400,R,ugm-3 (TEOM FDMS)
10-01-2019,09:00,21.600,R,ugm-3 (TEOM FDMS),28.000,R,ugm-3 (TEOM FDMS),6.400,R,ugm-3 (TEOM FDMS)
10-01-2019,10:00,24.100,R,ugm-3 (TEOM FDMS),30.900,R,ugm-3 (TEOM FDMS),6.800,R,ugm-3 (TEOM FDMS)
10-01-2019,11:00,28.000,R,ugm-3 (TEOM FDMS),34.400,R,ugm-3 (TEOM FDMS),6.400,R,ugm-3 (TEOM FDMS)
10-01-2019,12:00,22.100,R,ugm-3 (TEOM FDMS),29.500,R,ugm-3 (TEOM FDMS),7.400,R,ugm-3 (TEOM FDMS)
10-01-2019,13:00,18.100,R,ugm-3 (TEOM FDMS),26.600,R,ugm-3 (TEOM FDMS),8.500,R,ugm-3 (TEOM FDMS)
10-01-2019,14:00,22.100,R,ugm-3 (TEOM FDMS),27.200,R,ugm-3 (TEOM FDMS),5.100,R,ugm-3 (TEOM FDMS)
10-01-2019,15:00,19.300,R,ugm-3 (TEOM FDMS),26.800,R,ugm-3 (TEOM FDMS),7.500,R,ugm-3 (TEOM FDMS)
10-01-2019,16:00,17.400,R,ugm-3 (TEOM FDMS),24.800,R,ugm-3 (TEOM FDMS),7.400,R,ugm-3 (TEOM FDMS)
10-01-2019,17:00,16.200,R,ugm-3 (TEOM FDMS),22.900,R,ugm-3 (TEOM FDMS),6.700,R,ugm-3 (TEOM FDMS)
10-01-2019,18:00,18.600,R,ugm-3 (TEOM FDMS),25.600,R,ugm-3 (TEOM FDMS),7.000,R,ugm-3 (TEOM FDMS)
10-01-2019,19:00,18.400,R,ugm-3 (TEOM FDMS),24.100,R,ugm-3 (TEOM FDMS),5.700,R,ugm-3 (TEOM FDMS)
10-01-2019,20:00,20.300,R,ugm-3 (TEOM FDMS),26.000,R,ugm-3 (TEOM FDMS),5.700,R,ugm-3 (TEOM FDMS)
10-01-2019,21:00,22.600,R,ugm-3 (TEOM FDMS),28.500,R,ugm-3 (TEOM FDMS),5.900,R,ugm-3 (TEOM FDMS)
10-01-2019,22:00,22.700,R,ugm-3 (TEOM FDMS),28.000,R,ugm-3 (TEOM FDMS),5.300,R,ugm-3 (TEOM FDMS)
10-01-2019,23:00,20.100,R,ugm-3 (TEOM FDMS),25.800,R,ugm-3 (TEOM FDMS),5.700,R,ugm-3 (TEOM FDMS)
10-01-2019,24:00,17.900,R,ugm-3 (TEOM FDMS),24.200,R,ugm-3 (TEOM FDMS),6.300,R,ugm-3 (TEOM FDMS)
11-01-2019,01:00,12.000,R,ugm-3 (TEOM FDMS),18.400,R,ugm-3 (TEOM FDMS),6.400,R,ugm-3 (TEOM FDMS)
11-01-2019,02:00,12.800,R,ugm-3 (TEOM FDMS),18.500,R,ugm-3 (TEOM FDMS),5.700,R,ugm-3 (TEOM FDMS)
11-01-2019,03:00,12.000,R,ugm-3 (TEOM FDMS),18.200,R,ugm-3 (TEOM FDMS),6.200,R,ugm-3 (TEOM FDMS)
11-01-2019,04:00,13.400,R,ugm-3 (TEOM FDMS),18.600,R,ugm-3 (TEOM FDMS),5.200,R,ugm-3 (TEOM FDMS)
11-01-2019,05:00,11.300,R,ugm-3 (TEOM FDMS),17.500,R,ugm-3 (TEOM FDMS),6.200,R,ugm-3 (TEOM FDMS)
11-01-2019,06:00,11.300,R,ugm-3 (TEOM FDMS),19.900,R,ugm-3 (TEOM FDMS),8.600,R,ugm-3 (TEOM FDMS)
11-01-2019,07:00,11.700,R,ugm-3 (TEOM FDMS),18.100,R,ugm-3 (TEOM FDMS),6.400,R,ugm-3 (TEOM FDMS)